Location: Unspecified
(0.0000°N, 0.0000°E)
Time: 16:23:34
(UTC+00:00)

Transit 2A - Pass Details

Date: 23 November 2019
Orbit: 602 x 957 km, 66.7° (Epoch: 12 December)

Event Time Altitude Azimuth Distance (km) Brightness Sun altitude
Rises 09:21:35 0° 197° (SSW) 3,530 9.6 49.2°
Reaches altitude 10° 09:24:12 10° 195° (SSW) 2,544 9.0 49.7°
Maximum altitude 09:30:05 75° 110° (ESE) 856 7.8 51.0°
Drops below altitude 10° 09:35:23 10° 25° (NNE) 2,299 8.5 52.1°
Sets 09:37:39 0° 23° (NNE) 3,167 9.1 52.5°
